#timestamp,LO_Frequency,Hit,StdDev 
1507471215.2,286046995.0,Y
1507471235.0,286046999.2,P
1507471235.9,286046999.2,N
1507471255.8,286047000.6,N
1507471275.6,286047000.2,N
1507471295.5,286047001.6,N
1507471315.3,286047002.0,N
1507471335.1,286047002.1,N
1507471355.9,286047002.6,N
1507471375.7,286047002.4,N
1507471395.5,286047002.1,N
1507471415.4,286047002.3,N
1507471435.2,286047001.8,N
1507471455.0,286047001.8,N
1507471456.0,286047001.8,N
1507471475.8,286046999.9,N
1507471495.6,286047001.0,N
1507471515.5,286047000.6,N
1507471535.3,286047002.8,N
1507471555.1,286047001.5,N
1507471575.9,286047002.1,N
1507471595.7,286047000.0,N
1507471615.5,286047000.6,N
1507471635.4,286047000.5,N
1507471655.2,286046999.9,N
1507471675.1,286047001.0,N
1507471676.0,286047001.0,N
1507471695.8,286047000.5,N
1507471715.6,286047001.0,N
1507471735.5,286047000.5,N
1507471755.3,286047002.8,N
1507471775.1,286047002.0,N
1507471795.9,286047001.9,N
1507471815.7,286047002.1,N
1507471835.6,286047001.1,N
1507471855.4,286046998.9,N
1507471875.2,286047001.2,N
1507471895.1,286047001.2,N
1507471896.0,286047001.2,N
1507471915.8,286047004.2,Y
1507471935.7,286047008.1,P
1507471955.5,286047013.2,P
1507471975.3,286047015.9,P
1507471995.2,286047014.8,N
1507472015.9,286047011.2,N
1507472035.7,286047010.3,N
1507472055.6,286047008.6,N
1507472075.4,286047006.6,N
1507472095.2,286047007.1,N
1507472115.1,286047007.4,N
1507472116.0,286047007.4,N
1507472135.8,286047007.5,N
1507472185.7,286047004.8,E
1507472195.6,286047002.3,N
1507472215.5,286046996.9,P
1507472235.3,286046999.2,N
1507472255.1,286046999.5,N
1507472275.9,286046997.1,N
1507472295.7,286046996.8,N
1507472315.5,286046997.5,N
1507472335.4,286047001.2,N
1507472355.2,286047000.4,N
1507472375.1,286047004.0,N
1507472376.0,286047004.0,N
1507472395.8,286047004.4,N
1507472415.6,286047004.3,N
1507472435.5,286047002.0,N
1507472455.3,286046998.1,N
1507472475.2,286046999.3,N
1507472495.9,286047000.4,N
1507472515.7,286047000.9,N
1507472535.6,286046999.3,N
1507472555.4,286046998.8,N
1507472575.3,286047000.4,N
1507472595.1,286047000.6,N
1507472596.0,286047000.6,N
1507472615.8,286046998.4,N
1507472635.7,286047000.6,N
1507472655.5,286046998.2,N
1507472675.3,286046997.1,N
1507472695.2,286046997.8,N
1507472715.0,286046997.8,N
1507472715.9,286046997.8,N
1507472735.8,286046997.5,N
1507472755.6,286046997.1,N
1507472775.4,286046997.1,N
1507472795.3,286046996.5,N
1507472815.1,286046999.4,N
1507472835.9,286046997.2,N
1507472855.7,286046998.0,N
1507472875.5,286047001.1,N
1507472895.4,286047000.3,N
1507472915.2,286046998.4,N
1507472935.0,286046998.2,N
1507472936.0,286046998.2,N
1507472955.8,286046997.6,N
1507472975.6,286046997.7,N
1507472995.5,286047011.9,Y
1507473015.3,286047002.5,P
1507473035.1,286047003.0,N
1507473055.9,286047003.6,N
1507473075.7,286047002.7,N
1507473095.6,286047001.8,N
1507473115.4,286046998.3,N
1507473135.2,286047011.9,Y
1507473155.1,286046993.4,P
1507473156.0,286046993.4,N
1507473175.8,286046994.1,N
1507473195.6,286046993.5,N
1507473215.5,286046997.8,N
1507473235.3,286046997.7,N
1507473255.2,286046995.1,N
1507473275.9,286046996.4,N
1507473295.7,286046996.2,N
1507473315.6,286046998.0,N
1507473335.4,286046997.4,N
1507473355.2,286046996.0,N
1507473375.1,286046995.2,N
1507473376.0,286046995.2,N
1507473395.8,286046996.1,N
1507473415.7,286046995.5,N
1507473435.5,286046996.4,N
1507473455.3,286046994.4,N
1507473475.2,286046992.4,Y
1507473495.0,286046996.1,P
1507473495.9,286046996.1,P
1507473515.8,286046995.5,P
1507473535.6,286046997.5,Y
1507473555.4,286047002.5,P
1507473575.3,286047001.6,N
1507473595.1,286047001.7,N
1507473615.9,286047002.0,N
1507473635.7,286047001.7,N
1507473655.5,286047001.3,N
1507473675.4,286047001.4,N
1507473695.2,286047001.4,N
1507473715.0,286047004.2,N
1507473715.9,286047004.2,N
1507473735.8,286047004.3,N
1507473755.6,286047004.0,N
1507473775.5,286047001.7,N
1507473795.3,286047001.3,N
1507473815.1,286047004.0,N
1507473835.9,286047003.1,N
1507473855.7,286047004.2,N
1507473875.6,286047003.3,N
1507473895.4,286047004.2,N
1507473915.2,286047005.9,Y
1507473935.1,286047002.5,P
1507473936.0,286047002.5,P
1507473955.8,286047000.1,N
1507473975.7,286047002.8,N
1507473995.5,286047002.5,N
1507474015.3,286047001.9,N
1507474035.2,286047000.9,N
1507474055.0,286047000.6,N
1507474055.9,286047000.6,N
1507474075.8,286047000.5,N
1507474095.6,286047000.9,N
1507474115.4,286046998.4,N
1507474135.3,286047000.9,N
1507474155.1,286046998.1,N
1507474175.8,286046999.8,N
1507474195.7,286047004.0,N
1507474215.5,286047001.3,N
1507474235.4,286047005.6,Y
1507474255.2,286047001.6,P
1507474275.0,286047001.4,P
1507474275.9,286047001.4,P
1507474295.8,286047002.6,Y
1507474315.6,286047001.1,P
1507474335.5,286047001.2,P
1507474355.3,286047000.8,P
1507474375.1,286047000.1,N
1507474395.9,286046998.1,Y
1507474415.7,286046999.3,P
1507474435.5,286046997.9,N
1507474455.4,286046997.0,N
1507474475.2,286046996.9,N
1507474495.1,286046999.5,N
1507474496.0,286046999.5,N
1507474515.8,286046999.1,N
1507474535.6,286046997.0,N
1507474555.5,286046999.4,N
1507474575.3,286046998.2,N
1507474595.2,286046999.2,N
1507474615.9,286046996.5,N
1507474635.7,286046996.9,N
1507474655.6,286046998.9,N
1507474675.4,286047001.0,N
1507474695.2,286046999.1,N
1507474715.1,286046997.0,N
1507474716.0,286046997.0,N
1507474735.8,286046999.1,N
1507474755.7,286046997.0,N
1507474775.5,286046996.6,N
1507474795.3,286047000.5,N
